Theta_e
330 329 329 330 326 322 326 326 320 325 334 328 318 317 319 316 317 319 316 317 326 332 339 345 344 346 347 346 348 349 348 350 350 350 351 348 349 353 352 353 356 357 356 356 358 359 359 360 360 357 352 349 348 348 349 349 348 348 347 346 347 348 348
330 330 328 330 329 328 325 319 322 331 329 327 326 319 317 317 317 317 314 315 320 321 327 341 345 343 345 346 349 351 350 351 352 353 352 349 351 354 353 355 357 357 356 356 358 359 360 361 360 356 351 349 349 349 349 349 349 348 346 346 347 348 348
329 331 327 325 327 331 329 323 328 328 317 317 321 317 318 320 318 317 317 317 319 319 325 336 340 341 345 346 349 351 349 352 357 358 354 352 357 357 353 356 358 358 356 356 358 360 361 361 359 356 351 349 350 350 350 350 350 348 346 346 347 347 348
330 329 324 319 321 329 331 328 330 328 321 320 319 318 321 322 320 319 319 318 321 329 337 339 338 342 345 343 348 350 346 352 361 360 355 357 363 360 354 356 359 358 356 357 359 359 361 361 358 355 352 350 351 351 350 351 351 349 347 346 347 347 347
324 322 323 322 322 327 325 322 321 321 323 324 323 320 319 321 322 320 319 320 325 340 351 348 345 346 346 347 352 353 347 349 355 356 356 360 363 360 356 357 358 357 356 357 360 360 360 360 358 354 352 352 353 352 352 352 352 350 348 347 347 348 346
317 319 328 330 329 329 325 323 321 319 323 320 317 318 316 320 323 320 319 321 326 341 352 351 348 345 347 352 354 353 349 350 352 353 357 363 363 359 356 356 356 356 356 358 362 362 360 359 357 354 353 352 353 354 353 352 352 351 349 349 348 348 346
321 326 330 328 329 331 329 328 327 327 327 318 314 319 320 317 319 319 322 323 330 350 360 353 348 343 346 354 356 351 349 353 355 351 356 362 360 357 355 353 355 356 354 356 360 361 360 359 356 353 352 352 352 353 353 352 352 351 351 350 349 347 346
326 329 332 329 331 332 326 327 329 328 327 321 324 336 332 320 316 318 322 322 330 354 366 355 350 347 345 349 354 355 351 352 355 357 363 365 358 355 354 351 354 356 353 354 357 358 359 357 355 352 351 351 352 353 353 351 351 352 352 351 348 346 345
319 319 323 324 325 326 324 329 329 327 330 325 328 338 333 322 318 320 325 323 329 348 359 350 348 348 346 343 346 354 356 354 356 362 373 372 360 357 356 353 355 356 357 358 355 354 357 356 354 352 350 352 352 352 352 349 349 351 351 349 348 346 345
319 320 323 323 323 324 325 328 328 328 331 325 323 324 321 321 323 324 327 327 333 350 356 349 349 350 347 346 345 351 356 361 364 367 380 384 372 364 360 357 357 356 359 361 355 352 354 353 352 352 351 352 351 350 350 348 348 349 349 348 347 345 345
324 328 334 338 330 322 319 323 325 327 329 328 329 320 317 328 331 324 329 335 333 341 350 350 352 352 352 355 356 352 353 359 364 371 386 391 384 374 365 360 359 359 360 362 357 352 351 351 350 350 350 350 349 348 347 346 347 347 346 346 346 346 346
334 338 336 333 330 323 320 321 323 326 327 328 327 318 323 341 331 318 334 346 332 333 348 352 352 355 357 361 362 358 357 360 359 369 388 391 386 381 371 363 363 363 361 361 358 351 349 350 349 348 348 348 347 346 345 343 344 344 343 345 346 346 345
335 336 330 328 331 327 326 326 323 325 327 324 323 324 337 347 328 322 340 349 337 337 345 350 351 352 353 357 360 358 359 363 359 361 379 385 383 385 377 367 365 364 361 361 358 351 348 348 349 348 347 346 345 345 344 342 342 342 342 344 346 345 345
327 329 329 330 328 325 326 327 326 328 327 326 325 328 339 346 340 344 351 348 346 344 341 345 349 349 352 355 355 351 354 366 368 364 371 374 374 379 378 370 367 364 362 360 356 351 348 348 349 349 347 345 345 344 342 341 341 341 341 343 346 347 345
323 327 329 329 327 326 323 323 330 330 328 330 328 327 331 334 337 351 355 347 348 346 341 348 351 353 356 353 352 354 356 361 362 360 363 367 369 371 371 370 369 366 364 362 357 352 349 348 350 350 348 346 345 342 338 337 339 340 341 344 345 344 340
318 324 327 326 325 325 320 319 327 328 325 327 328 331 335 329 330 343 345 339 345 349 349 352 355 357 358 356 358 364 366 364 358 354 355 360 366 369 368 370 373 370 366 364 361 354 349 350 352 350 348 346 341 337 335 336 337 337 338 339 338 336 334
318 323 325 324 322 319 316 319 326 328 330 331 330 331 336 335 340 345 339 337 347 355 353 351 353 356 357 359 362 363 368 372 368 362 361 361 367 374 373 372 374 370 365 362 359 353 350 352 353 350 346 343 339 336 335 336 337 336 335 335 333 332 333
317 325 328 324 319 317 322 332 334 334 333 332 332 333 336 343 350 349 344 345 352 352 350 352 354 353 353 355 358 362 368 371 366 362 363 364 365 372 374 371 368 367 363 358 355 354 353 353 352 348 344 341 338 336 334 333 333 334 334 335 335 334 336
322 332 335 323 316 322 337 345 340 336 335 336 339 341 344 347 348 350 348 349 354 354 351 353 356 355 355 357 362 367 370 373 371 367 367 368 365 367 371 372 368 364 360 355 353 355 354 353 351 347 344 342 338 335 333 331 330 332 335 338 339 339 340
326 326 328 324 324 334 348 347 339 336 342 346 343 341 348 348 346 351 350 346 355 358 351 352 356 356 359 363 365 364 363 365 364 360 361 363 360 362 368 372 370 363 356 354 355 356 354 353 350 346 343 341 337 334 333 332 332 333 335 339 343 343 342
326 320 322 327 327 331 339 342 340 338 339 345 341 337 345 351 349 356 358 349 352 356 352 350 350 351 357 358 355 355 356 356 354 352 351 350 352 358 360 362 364 359 354 355 357 357 355 352 350 346 342 339 336 334 333 333 333 334 335 339 345 346 343
330 321 320 326 320 320 331 340 345 342 334 341 345 338 344 356 353 352 355 351 350 354 354 353 352 358 361 353 346 348 349 349 350 349 346 346 353 360 359 360 364 361 358 359 359 358 356 353 350 346 341 338 336 334 334 333 333 335 337 341 345 346 345
331 324 322 323 318 323 343 350 346 340 334 343 349 336 337 355 357 349 351 353 352 350 353 359 362 361 356 347 343 344 344 346 350 348 347 354 359 358 358 362 365 364 363 361 360 359 356 351 349 346 341 338 336 334 334 334 334 337 340 343 345 345 345
330 329 326 324 324 338 357 349 339 339 339 352 352 332 333 353 358 350 348 351 353 351 353 360 359 357 356 352 348 343 337 339 348 353 359 367 365 360 359 361 362 362 363 363 361 360 355 350 348 346 341 338 337 336 336 336 337 340 343 344 344 344 344
326 326 323 322 330 350 357 341 337 338 338 346 340 333 343 356 353 348 345 344 350 354 354 355 354 355 359 355 347 343 339 342 352 358 359 360 359 357 357 359 361 360 361 361 360 358 354 350 348 345 341 339 338 339 340 339 340 342 342 343 344 343 344
331 332 331 326 332 349 347 336 340 340 337 340 340 343 351 350 344 346 345 342 346 349 349 350 350 348 348 345 341 341 344 349 357 359 357 356 356 357 357 358 359 360 360 359 358 356 354 350 347 345 342 341 341 343 343 342 342 342 341 341 341 342 343
346 344 341 333 335 348 344 340 355 358 349 353 361 358 351 343 341 345 345 343 346 345 344 347 347 345 346 348 348 346 347 353 358 358 358 356 355 358 358 357 358 360 359 355 353 353 353 349 347 346 344 344 345 346 346 344 344 345 346 345 343 343 343
353 345 345 344 346 350 343 344 362 363 355 360 366 358 350 346 344 345 346 347 347 346 347 349 348 347 349 351 352 350 351 356 359 357 357 356 354 356 357 356 356 355 350 346 344 346 350 349 348 347 347 348 349 349 349 349 348 348 348 346 346 346 346
352 348 353 356 352 347 342 345 352 351 348 351 350 345 344 345 345 345 347 347 348 348 351 353 353 352 351 352 353 351 354 361 361 358 358 357 354 353 350 347 346 345 342 341 340 339 344 349 348 347 347 349 351 351 351 350 347 343 340 339 342 344 346
352 345 347 348 343 339 339 340 341 340 340 342 342 343 345 345 346 347 347 347 350 351 351 352 356 356 353 352 353 354 360 367 364 359 357 352 347 346 345 342 341 340 339 340 340 339 341 346 350 350 349 351 352 350 348 344 340 337 336 337 340 342 344
349 348 349 345 339 337 337 337 338 338 337 338 342 347 348 346 346 346 344 345 350 352 352 355 358 357 354 356 360 361 362 360 357 356 355 349 344 344 344 342 340 339 339 340 340 341 341 343 347 348 348 349 348 345 343 341 339 340 341 341 342 343 343
352 354 353 346 343 341 336 336 339 338 337 338 340 342 343 341 342 343 343 343 346 348 353 359 361 358 357 360 361 359 355 352 351 352 351 346 343 342 341 340 340 339 339 340 340 340 339 341 342 343 344 343 340 340 339 335 332 335 339 341 342 343 343
357 355 350 348 350 346 336 335 338 338 336 337 337 337 337 336 338 341 341 342 343 344 350 358 362 361 357 356 352 348 347 348 348 348 346 343 342 342 342 340 339 338 339 339 339 337 336 336 335 333 335 334 332 333 331 326 325 329 334 337 339 339 341
357 357 353 352 352 345 336 336 339 338 336 336 336 336 335 333 336 338 336 337 342 345 348 355 361 362 358 353 349 347 347 347 346 345 343 341 340 342 342 341 340 339 339 339 337 335 334 331 327 325 328 330 329 327 326 325 327 329 332 334 335 335 337
349 347 345 347 349 343 336 337 339 339 338 336 333 333 333 333 334 334 333 335 340 344 347 351 357 361 359 354 352 351 350 346 343 343 342 340 340 340 340 340 340 339 338 339 338 336 332 326 324 326 330 330 327 326 327 329 329 328 330 333 334 334 334
334 333 334 339 343 340 335 336 338 338 338 336 332 330 332 332 331 331 335 339 341 343 345 346 349 355 357 353 354 357 353 345 341 342 342 340 339 338 338 338 338 339 340 340 339 337 333 328 326 328 329 328 327 329 332 333 331 330 331 331 332 333 332
327 331 332 333 336 336 336 336 334 334 335 334 333 334 334 333 334 336 337 340 340 337 338 340 341 346 351 351 351 353 350 344 341 343 343 341 339 338 339 338 337 340 342 340 337 337 335 329 326 325 327 330 331 332 333 333 332 332 332 330 331 331 330
Wind_Speed
11 13 11 10 8 6 3 3 5 5 3 4 4 4 5 4 3 3 3 4 1 0 4 3 15 16 13 12 10 12 14 12 12 11 12 12 11 12 13 13 13 15 18 23 26 27 29 30 30 30 33 35 35 34 33 31 30 29 28 25 22 21 19
9 11 11 13 11 6 4 4 6 5 4 3 3 1 2 3 3 4 4 6 3 3 3 2 14 17 12 9 10 12 15 15 14 11 11 13 11 12 14 13 14 15 17 22 26 28 30 32 32 32 33 34 34 34 34 32 31 30 28 26 23 21 19
11 11 10 12 12 8 5 6 8 7 4 5 3 2 2 3 3 2 3 6 4 4 4 5 11 14 12 10 11 12 13 13 11 10 11 12 10 11 12 11 12 13 15 21 25 27 30 32 32 32 32 31 31 32 33 32 31 31 28 26 23 21 20
11 9 8 7 7 8 4 4 6 7 5 5 5 4 3 4 3 1 3 4 3 4 4 9 11 10 11 11 10 12 13 12 10 9 10 10 9 10 11 10 11 12 15 21 27 29 30 32 32 31 30 30 29 29 30 29 29 29 27 25 24 22 20
11 6 7 8 6 5 4 3 5 5 4 4 4 5 4 4 4 3 1 3 3 6 2 7 10 9 10 10 9 8 10 11 11 10 10 9 8 10 12 11 12 13 15 21 27 28 29 29 29 29 30 29 28 28 28 28 27 28 27 26 25 23 22
7 6 10 11 9 7 5 4 5 5 4 4 3 3 4 3 4 4 4 1 4 6 2 6 8 8 8 9 9 7 7 9 9 9 10 10 8 9 12 12 13 13 14 19 24 26 27 28 28 29 29 29 28 28 28 28 28 28 28 26 26 24 23
7 8 14 16 13 10 8 5 4 3 3 3 4 3 4 2 3 4 5 3 4 6 2 7 8 9 9 8 8 7 7 9 9 8 10 11 11 11 12 12 12 12 14 19 23 24 26 28 29 29 29 29 29 28 29 29 28 28 27 27 27 25 24
8 10 12 17 16 12 8 7 6 6 6 6 4 5 4 3 4 4 4 3 3 7 2 6 8 9 9 8 7 7 7 8 9 8 8 10 12 12 11 11 10 10 13 17 19 21 23 25 27 29 29 29 29 29 29 29 29 28 27 27 28 26 25
6 8 7 10 13 10 6 4 5 7 10 12 7 1 2 3 5 6 5 3 4 5 1 7 8 8 8 7 7 8 8 7 7 7 7 9 10 11 11 11 9 11 12 13 15 19 22 23 26 28 29 30 29 29 31 29 29 29 28 28 29 27 26
5 7 6 6 7 6 4 5 7 8 9 11 8 2 2 3 6 6 7 4 5 5 3 8 8 8 8 7 7 8 8 7 7 7 7 7 8 10 12 12 11 12 13 12 14 19 22 24 25 26 28 30 29 29 31 30 30 30 29 29 30 29 26
8 6 6 6 9 7 6 8 11 11 10 8 6 5 4 4 4 4 6 10 8 6 5 8 8 9 9 8 8 8 7 7 7 7 7 7 8 9 11 11 11 12 12 12 14 19 23 25 26 26 28 30 29 27 29 31 31 32 31 31 31 29 27
10 8 6 5 8 9 9 11 13 13 14 10 5 6 7 7 7 4 8 15 14 11 11 10 9 9 9 8 9 9 8 8 8 7 8 8 8 9 10 11 11 12 12 12 13 17 22 24 25 26 27 29 30 28 27 31 33 33 32 32 32 30 28
9 9 9 7 6 7 6 7 12 16 16 14 9 7 7 9 8 6 11 16 16 14 12 12 12 11 10 9 9 9 8 8 8 8 9 9 9 9 10 12 12 12 12 12 12 15 20 22 23 24 25 27 30 28 26 29 32 33 32 33 33 31 29
8 9 11 9 7 6 5 8 8 11 13 12 11 9 7 8 7 8 13 14 13 13 14 13 13 11 10 9 8 9 9 8 9 9 9 9 9 10 11 12 13 13 12 12 12 14 18 22 23 24 25 27 29 28 26 26 29 32 33 34 33 31 27
2 6 10 12 11 6 5 10 10 8 9 9 9 9 8 8 6 8 14 13 8 9 11 10 9 8 9 9 8 8 8 9 9 8 8 8 9 10 11 11 12 12 12 12 11 12 18 23 24 25 27 28 29 28 27 28 30 33 34 33 32 30 23
1 4 7 11 12 8 8 11 10 10 9 6 5 4 4 7 7 7 12 9 6 6 7 8 8 9 9 9 8 7 6 6 7 6 5 6 7 9 10 10 11 12 13 13 13 14 19 23 25 26 27 28 29 29 29 28 28 30 30 27 26 23 17
1 4 8 8 7 6 8 8 8 9 7 3 4 7 8 9 7 7 7 6 5 5 7 8 8 9 9 7 7 7 6 7 7 5 3 2 4 7 9 9 10 12 12 12 15 18 22 24 26 28 31 31 30 29 28 27 25 23 22 23 23 18 15
1 3 6 6 4 4 6 3 2 3 4 5 5 7 11 8 2 7 5 5 7 8 9 9 9 8 8 7 7 8 7 7 6 5 3 2 2 4 7 9 10 10 10 11 16 21 25 26 27 29 31 31 29 28 28 27 25 22 21 23 24 21 22
2 2 5 3 4 5 4 2 4 7 8 7 6 7 7 6 7 10 9 8 8 8 8 9 10 9 9 8 8 8 8 7 6 6 5 4 4 3 6 8 9 9 9 11 15 19 22 25 27 28 29 29 29 29 30 31 29 24 20 21 24 26 28
2 2 4 2 4 4 2 4 4 4 6 7 7 6 5 5 5 6 9 8 8 9 8 7 7 7 6 6 6 6 8 7 7 7 7 7 7 6 7 8 9 12 15 17 19 21 24 28 28 28 30 31 31 32 32 32 30 25 20 20 25 28 29
1 2 2 1 4 5 3 3 4 2 2 4 4 2 3 3 4 4 7 7 7 9 9 8 8 8 7 7 4 1 3 5 8 8 7 6 7 8 8 8 11 19 24 24 23 25 27 29 29 30 31 32 32 31 30 29 27 24 22 23 27 30 30
1 2 1 1 3 4 2 1 3 3 4 3 4 3 4 5 5 5 6 7 7 9 8 8 8 7 6 5 4 5 4 2 3 5 4 3 5 7 8 8 9 16 22 25 26 28 29 28 28 32 34 34 32 30 28 28 27 25 24 25 27 30 32
1 3 1 2 2 3 2 1 3 5 5 5 6 4 5 7 7 5 6 7 7 9 8 7 7 6 5 3 1 3 3 5 5 6 3 1 5 9 12 12 12 14 20 24 26 27 27 26 29 34 36 34 32 29 27 28 27 24 25 27 28 31 32
3 5 2 1 1 3 4 3 5 6 8 10 9 2 5 7 7 4 7 8 6 7 7 7 7 6 4 5 3 3 2 2 3 7 7 6 8 10 12 14 13 14 19 23 25 26 27 28 31 35 36 33 30 28 27 25 24 25 26 28 30 32 31
3 5 5 3 1 2 4 4 5 5 7 9 5 3 5 6 7 5 9 9 7 6 7 6 5 3 4 4 2 3 4 5 0 6 9 11 13 13 14 15 14 13 14 17 22 24 27 30 33 35 35 32 28 26 24 23 24 27 29 29 29 29 28
2 1 1 2 1 2 3 5 6 5 4 2 2 3 4 4 6 8 9 9 8 8 7 6 5 4 4 6 7 7 8 6 3 7 8 10 12 13 15 16 15 13 12 13 19 23 27 31 34 35 34 29 27 25 24 26 27 27 27 28 28 28 27
3 3 3 2 2 6 3 2 4 4 2 5 5 3 1 3 7 9 9 9 9 8 8 7 8 8 8 8 7 7 8 6 6 8 7 8 9 10 13 15 15 14 10 6 7 16 26 31 31 33 32 27 25 25 22 23 22 17 15 19 23 26 27
3 4 1 2 3 6 5 2 1 1 1 2 2 2 3 5 6 7 7 8 8 9 9 9 9 8 7 7 7 7 8 6 4 7 6 7 8 9 11 12 11 12 14 12 9 7 11 25 28 28 29 25 21 20 18 15 14 11 8 9 11 14 17
2 3 3 3 1 4 4 4 4 4 5 5 5 6 6 6 6 5 6 7 8 9 9 8 7 7 6 7 7 7 7 4 4 6 6 7 10 11 13 16 18 18 17 17 6 15 14 13 26 25 24 23 20 18 15 12 9 7 6 7 7 8 6
6 6 6 4 5 5 6 6 6 6 7 7 7 7 7 5 5 5 6 7 7 7 7 6 5 5 6 7 7 7 7 7 6 7 8 9 12 14 16 19 22 20 16 16 13 8 21 4 19 23 20 20 19 15 12 8 7 8 9 8 7 6 4
5 4 9 12 10 8 8 9 7 8 8 7 6 5 6 6 6 6 7 7 6 6 7 7 6 6 7 6 6 6 7 8 7 7 7 9 11 12 16 19 22 23 19 16 14 3 16 7 15 21 18 18 16 12 11 9 8 9 7 6 6 5 4
4 5 6 7 10 8 7 8 7 7 8 8 8 7 7 8 8 8 8 7 5 4 6 6 7 7 7 6 6 7 7 6 6 6 6 8 10 12 17 22 22 22 20 18 17 8 8 6 13 21 17 15 14 11 12 10 6 5 5 4 5 6 5
3 4 4 2 4 6 7 9 8 7 8 9 10 9 9 10 10 9 8 8 7 5 5 7 8 7 7 7 7 7 6 4 5 5 5 8 12 13 16 21 24 22 19 18 23 20 5 4 11 19 15 13 13 11 9 4 1 4 7 6 5 4 3
2 4 3 3 2 0 4 5 4 5 5 7 7 7 8 9 9 8 8 8 8 7 5 6 8 6 5 6 7 7 6 4 3 5 6 8 12 14 17 20 24 25 22 18 21 24 18 10 9 13 13 12 10 6 1 2 3 5 6 6 5 4 2
3 3 4 4 4 4 3 2 2 2 4 5 8 7 8 7 7 7 7 6 7 7 6 3 7 7 5 7 8 7 6 6 6 7 9 11 12 14 18 20 20 21 23 21 19 20 20 15 10 11 12 8 3 1 4 6 6 6 5 5 4 4 3
5 5 5 4 3 2 1 2 5 5 6 6 7 7 7 7 7 6 6 6 5 6 6 3 4 7 7 7 8 8 6 7 9 10 11 13 16 17 17 18 18 18 19 20 18 16 18 17 12 9 6 5 5 6 10 10 8 6 6 5 4 3 2
6 4 3 2 2 1 2 4 7 7 7 7 7 6 7 7 6 5 6 6 5 6 7 5 3 7 8 7 7 9 9 8 11 13 12 12 15 15 14 15 17 18 18 17 16 16 18 14 8 6 10 12 11 12 11 9 8 8 6 4 3 2 0
Wind_Direction
180 186 212 219 204 209 201 145 175 210 220 153 146 212 202 177 232 246 231 251 280 213 299 88 130 147 162 170 167 164 169 165 160 170 179 179 173 167 170 169 164 164 163 165 167 167 168 172 175 178 179 181 182 182 181 181 181 183 184 184 184 184 185
208 189 204 227 227 219 183 166 180 188 248 237 140 149 222 179 218 228 214 230 203 145 260 173 136 147 161 150 141 157 164 163 166 173 178 179 171 166 171 169 165 165 165 166 169 170 172 175 178 181 183 183 184 184 182 181 182 184 185 185 184 184 188
203 183 195 229 238 241 204 172 170 159 209 239 172 132 206 186 209 260 252 241 215 181 209 175 146 148 145 130 129 146 155 159 164 168 171 170 159 161 168 165 163 165 165 167 169 171 174 177 179 182 183 184 185 185 184 183 185 187 186 185 184 184 190
181 177 189 208 233 251 231 175 172 167 183 200 185 187 178 163 171 207 282 284 280 264 216 165 155 148 135 127 127 143 153 155 154 160 166 160 151 160 165 163 165 166 166 170 171 172 175 177 179 180 181 183 185 186 185 184 186 187 186 185 183 184 191
174 181 191 190 198 218 221 202 188 186 197 185 183 208 191 157 149 150 224 304 292 286 266 140 141 138 133 131 129 139 150 151 156 161 163 162 159 163 164 163 167 169 170 171 172 174 175 175 176 178 179 182 184 185 186 185 185 187 187 185 184 185 190
188 188 178 186 199 200 200 209 194 185 196 172 159 235 224 152 136 156 152 174 279 294 13 97 111 114 114 118 124 130 132 138 151 156 157 164 167 166 169 168 168 171 170 169 170 172 172 173 176 178 179 180 181 183 186 186 185 187 188 186 184 186 189
200 193 178 183 201 210 206 214 211 194 212 188 157 206 233 179 163 175 131 111 273 290 41 92 99 105 107 106 113 125 130 134 146 154 155 165 173 175 177 172 168 172 172 169 169 170 171 175 177 178 179 180 181 183 184 186 186 187 189 188 185 187 189
196 199 186 182 191 203 209 214 204 195 225 233 190 166 179 184 189 179 108 96 244 281 337 103 108 112 114 106 97 106 121 131 139 144 148 165 178 182 183 179 170 170 170 165 167 171 173 175 176 178 180 180 181 182 184 186 187 186 187 188 187 187 189
191 196 195 185 190 194 197 212 209 203 210 214 221 211 135 185 197 163 122 126 223 255 154 116 109 96 105 116 114 114 126 135 135 133 137 158 172 178 184 186 171 163 166 167 170 175 175 175 177 178 179 180 181 182 183 184 185 185 187 188 186 187 188
181 191 202 192 185 187 192 216 235 242 224 206 208 192 113 208 222 167 130 150 222 240 161 134 130 114 119 142 141 131 136 139 136 139 143 151 158 167 180 183 174 169 172 173 174 176 176 177 179 179 178 180 182 181 181 183 184 184 186 188 187 187 187
188 199 213 182 160 167 189 202 225 250 254 228 186 157 168 186 193 195 165 154 173 212 189 165 160 145 145 158 149 140 144 140 140 148 153 157 157 162 173 177 175 175 176 176 176 177 178 180 182 182 180 181 183 182 180 182 183 184 186 187 185 184 185
194 205 239 221 170 179 191 190 207 231 247 248 208 181 199 169 144 216 200 158 160 192 193 178 174 159 154 160 153 153 164 162 155 150 150 161 162 157 166 174 176 178 180 181 179 176 177 180 182 184 184 184 187 188 185 183 183 184 185 183 182 184 186
208 220 243 247 207 206 216 209 206 209 223 240 233 205 185 157 154 204 198 171 167 183 186 179 178 170 162 165 158 152 158 160 161 158 155 164 166 158 163 175 178 179 180 182 179 177 178 178 180 184 185 186 190 195 195 189 185 184 182 179 180 185 187
218 240 251 254 250 246 272 287 255 213 212 227 231 226 202 182 180 174 177 182 180 181 185 183 180 172 159 155 149 142 142 144 154 163 165 171 175 168 166 174 180 181 181 182 179 175 178 180 180 182 184 187 192 196 192 183 178 178 177 176 177 180 185
245 257 252 247 250 259 274 280 277 256 240 235 232 235 224 220 220 163 163 183 199 193 183 171 164 154 139 137 142 146 147 139 140 151 166 179 186 183 177 174 177 180 179 179 179 177 181 185 182 180 181 185 188 184 175 166 163 164 166 167 171 174 182
309 278 262 237 228 245 262 260 261 258 253 248 245 250 235 226 216 161 156 176 209 204 167 138 137 137 131 136 138 133 126 122 127 144 173 195 196 193 190 175 171 178 178 175 180 184 186 186 182 178 175 175 175 171 163 157 156 157 158 160 167 174 189
208 271 281 256 219 224 241 247 259 263 269 318 340 332 309 263 209 155 157 171 169 153 128 114 117 117 112 117 121 112 102 99 102 114 138 187 182 181 185 178 171 178 180 176 178 183 186 186 182 177 172 170 170 166 156 145 142 150 162 174 185 196 213
178 275 296 294 274 233 227 234 325 320 334 0 7 350 322 298 165 124 122 114 105 103 107 116 123 120 120 130 135 134 129 117 114 129 144 169 181 167 170 174 179 183 186 181 178 180 184 183 178 173 171 170 165 157 151 145 147 160 181 193 201 211 216
121 30 23 341 275 245 238 302 31 31 16 10 20 23 10 17 75 101 99 90 93 98 110 130 137 139 144 143 139 138 134 129 139 159 183 197 205 198 177 175 181 184 186 185 181 178 176 171 167 166 167 163 154 151 156 161 166 181 195 201 205 209 208
127 81 83 157 258 285 341 360 359 17 26 27 24 16 21 42 62 106 118 119 121 114 113 120 117 116 115 97 97 123 129 136 154 174 197 201 203 213 203 188 184 185 188 188 182 173 166 163 164 164 164 160 155 157 165 169 175 188 200 204 206 205 205
112 110 129 174 305 315 346 360 342 6 48 59 71 33 309 8 57 101 123 126 122 113 112 107 91 77 68 57 28 21 142 187 204 189 182 195 205 203 195 189 189 190 190 187 177 168 163 163 165 165 162 160 160 163 166 171 181 194 203 208 207 204 206
46 62 15 335 313 293 251 287 347 12 353 350 91 95 300 329 34 73 112 119 109 106 109 108 96 77 64 60 344 338 52 115 187 159 153 202 193 167 150 150 167 175 178 177 171 166 163 163 166 165 162 164 167 170 171 177 189 202 207 209 208 205 208
76 86 13 269 251 277 275 311 357 6 9 23 56 50 303 314 355 34 95 105 103 107 107 102 95 81 77 99 322 336 77 105 127 143 158 147 127 128 131 138 145 149 158 166 167 164 161 162 165 166 166 169 172 176 181 186 194 204 209 208 207 208 212
157 136 164 268 227 269 292 356 18 14 39 56 61 38 283 299 322 16 88 86 84 100 97 85 91 102 140 165 210 270 251 235 174 160 155 132 123 122 124 134 144 148 153 160 165 166 164 163 165 168 169 172 176 181 187 190 195 202 206 208 208 211 215
196 164 186 225 214 267 306 1 27 34 51 61 82 182 249 296 329 28 77 79 73 81 81 78 90 125 166 155 104 8 347 335 357 139 132 127 129 128 127 134 146 154 158 162 165 167 165 163 165 170 172 174 181 187 188 189 195 202 206 208 210 212 216
336 342 250 264 291 301 340 18 13 21 66 113 173 201 250 310 14 38 52 61 61 62 66 69 64 46 44 51 43 24 9 8 83 117 117 123 129 134 139 145 152 161 169 165 159 159 161 162 166 170 172 175 181 185 188 193 198 204 209 212 216 219 221
58 29 356 8 273 280 294 43 6 3 121 191 197 176 277 356 45 51 44 46 51 52 56 53 46 42 36 29 27 18 6 20 96 125 131 132 130 130 138 148 156 157 148 124 132 157 161 161 165 169 169 173 179 177 180 189 191 189 196 207 217 222 224
115 126 209 210 230 280 305 77 86 17 88 207 198 110 38 16 42 61 53 41 37 42 47 38 30 32 29 21 24 17 5 17 111 142 140 129 123 121 125 129 127 116 100 75 16 311 186 160 161 167 163 159 160 153 148 158 162 155 163 189 209 221 226
75 123 205 213 207 327 351 62 91 69 55 46 49 65 60 36 26 40 52 41 30 36 43 37 31 26 15 12 13 7 4 26 102 116 97 87 94 96 86 76 74 76 91 108 95 308 289 168 151 157 155 144 135 130 130 138 148 161 190 204 213 230 240
23 6 329 346 40 43 38 54 77 81 69 61 56 61 69 61 39 44 56 41 26 32 31 20 16 6 357 1 358 357 16 40 63 79 82 80 84 90 86 81 87 92 91 104 113 314 303 268 136 139 146 138 127 125 134 150 166 177 191 199 201 216 231
64 347 313 329 355 23 42 42 41 52 59 62 65 68 73 66 53 56 54 28 15 38 40 22 12 3 1 11 16 29 49 55 54 67 87 87 82 95 107 108 113 116 108 98 99 17 302 287 122 120 127 131 131 142 155 165 180 184 190 199 196 198 210
125 185 242 309 331 343 27 45 31 28 38 40 38 44 54 48 35 40 48 27 6 40 67 64 55 39 24 29 48 67 74 74 73 77 96 104 100 107 121 126 126 124 120 116 110 96 299 277 121 117 123 128 134 150 152 146 144 143 149 181 192 190 199
105 180 185 98 340 331 16 37 24 14 31 42 33 23 35 43 29 21 34 30 15 31 68 79 73 58 42 47 66 79 79 79 93 100 104 109 109 111 120 126 127 125 125 126 123 125 172 242 115 114 121 122 121 128 128 113 82 125 136 153 164 160 174
125 203 175 119 138 41 40 40 22 8 27 64 62 31 27 43 36 19 19 18 8 10 38 77 93 92 80 85 93 95 95 96 101 113 117 109 105 108 112 116 123 128 131 136 137 142 157 173 134 120 127 130 124 119 107 279 235 163 153 165 170 162 171
151 166 138 134 145 134 118 140 133 39 19 62 76 50 25 29 32 24 16 8 2 353 353 70 121 133 134 127 124 117 127 147 148 143 143 133 123 123 122 122 127 134 139 147 154 155 157 162 152 130 129 134 138 253 232 206 185 171 171 173 171 176 190
99 90 91 100 109 112 114 95 83 53 26 42 59 48 26 13 11 10 357 346 344 327 316 317 151 156 153 144 140 137 145 163 165 163 162 152 146 145 143 140 144 150 156 162 167 163 158 155 144 132 151 219 230 197 185 181 172 170 173 163 163 188 192
81 71 67 82 82 343 347 57 62 45 31 36 40 37 18 348 335 342 339 330 324 309 307 305 245 187 162 146 147 148 153 172 177 171 168 163 157 156 158 158 157 157 161 165 165 162 160 157 156 187 211 209 185 165 169 175 169 168 171 170 190 219 294